Tracking 25711 objects as of 22-May-2022
HD Live streaming from Space Station
objects crossing your sky now

SL-12 R/B(2)

Track SL-12 R/B(2) now!


NORAD ID: 19777
Int'l Code: 1988-095F
Perigee: 36,412.6 km
Apogee: 36,508.7 km
Inclination: 14.4 °
Period: 1,470.3 minutes
Semi major axis: 42831 km
RCS: 2.6743 m2 (large)
Launch date: October 20, 1988
Source: Commonwealth of Independent States (former USSR) (CIS)
Launch site: TYURATAM MISSILE AND SPACE COMPLEX (TTMTR)

Note: This is a ROCKET BODY
aabbcc
Your satellite tracking list
Your tracking list is empty




NASA's NSSDC Master Catalog

Two Line Element Set (TLE):
1 19777U 88095F   22141.74586391 -.00000137  00000-0  00000-0 0  9996
2 19777  14.3782 344.2682 0011215 208.6977 339.6928  0.97939049107723
Source of the keplerian elements: AFSPC